Hourly Weather Bolshoe Barovo

Today, 20 June, Sunday

Time Temperature Precipitation Wind Pressure Humidity
00:00 +19°C° 0 mm 2 mps 751 mmHg 88%
01:00 +19°C° 0 mm 2 mps 752 mmHg 89%
02:00 +19°C° 0 mm 2 mps 752 mmHg 91%
03:00 +19°C° 0 mm 2 mps 751 mmHg 91%
04:00 +19°C° 0 mm 2 mps 751 mmHg 92%
05:00 +19°C° 0 mm 2 mps 751 mmHg 92%
06:00 +21°C° 0 mm 3 mps 751 mmHg 87%
07:00 +22°C° 0 mm 3 mps 751 mmHg 82%
08:00 +25°C° 0 mm 4 mps 751 mmHg 77%
09:00 +26°C° 0 mm 4 mps 751 mmHg 72%
10:00 +28°C° 0 mm 4 mps 751 mmHg 66%
11:00 +29°C° 0 mm 5 mps 751 mmHg 61%
12:00 +29°C° 0 mm 4 mps 751 mmHg 59%
13:00 +30°C° 0 mm 4 mps 751 mmHg 57%
14:00 +30°C° 0 mm 4 mps 750 mmHg 55%
15:00 +30°C° 0.1 mm 4 mps 750 mmHg 59%
16:00 +29°C° 0.1 mm 4 mps 750 mmHg 62%
17:00 +29°C° 0.1 mm 4 mps 750 mmHg 66%
18:00 +28°C° 0.1 mm 3 mps 749 mmHg 72%
19:00 +26°C° 0.1 mm 3 mps 749 mmHg 77%
20:00 +25°C° 0.1 mm 2 mps 749 mmHg 83%
21:00 +24°C° 0 mm 3 mps 749 mmHg 85%
22:00 +22°C° 0 mm 3 mps 749 mmHg 87%
23:00 +21°C° 0 mm 3 mps 749 mmHg 89%

Tomorrow, 21 June, Monday

Time Temperature Precipitation Wind Pressure Humidity
00:00 +21°C° 0 mm 3 mps 749 mmHg 91%
01:00 +20°C° 0 mm 3 mps 749 mmHg 93%
02:00 +19°C° 0 mm 2 mps 749 mmHg 95%
03:00 +19°C° 0 mm 2 mps 749 mmHg 95%
04:00 +19°C° 0 mm 3 mps 749 mmHg 95%
05:00 +18°C° 0 mm 3 mps 749 mmHg 95%
06:00 +20°C° 0 mm 3 mps 749 mmHg 88%
07:00 +22°C° 0 mm 3 mps 749 mmHg 81%
08:00 +25°C° 0 mm 4 mps 749 mmHg 74%
09:00 +26°C° 0 mm 4 mps 749 mmHg 68%
10:00 +27°C° 0 mm 5 mps 749 mmHg 63%
11:00 +28°C° 0 mm 5 mps 748 mmHg 57%
12:00 +28°C° 0 mm 5 mps 748 mmHg 56%
13:00 +29°C° 0 mm 5 mps 748 mmHg 56%
14:00 +29°C° 0 mm 5 mps 748 mmHg 55%
15:00 +29°C° 0.1 mm 5 mps 747 mmHg 58%
16:00 +29°C° 0.1 mm 5 mps 747 mmHg 61%
17:00 +29°C° 0.1 mm 5 mps 747 mmHg 64%
18:00 +27°C° 0.3 mm 4 mps 747 mmHg 70%
19:00 +26°C° 0.3 mm 3 mps 747 mmHg 77%
20:00 +24°C° 0.3 mm 2 mps 747 mmHg 83%
21:00 +24°C° 0.1 mm 2 mps 747 mmHg 86%
22:00 +23°C° 0.1 mm 2 mps 747 mmHg 89%
23:00 +21°C° 0.1 mm 2 mps 747 mmHg 92%

Day after tomorrow, 22 June, Tuesday

Time Temperature Precipitation Wind Pressure Humidity
00:00 +21°C° 0.1 mm 2 mps 747 mmHg 93%
01:00 +20°C° 0.1 mm 2 mps 747 mmHg 94%
02:00 +20°C° 0.1 mm 2 mps 747 mmHg 95%
03:00 +20°C° 0 mm 2 mps 747 mmHg 95%
04:00 +20°C° 0 mm 2 mps 747 mmHg 95%
05:00 +20°C° 0 mm 2 mps 747 mmHg 95%
06:00 +21°C° 0 mm 3 mps 747 mmHg 90%
07:00 +24°C° 0 mm 3 mps 747 mmHg 85%
08:00 +25°C° 0 mm 4 mps 747 mmHg 80%
09:00 +27°C° 0 mm 4 mps 747 mmHg 74%
10:00 +28°C° 0 mm 4 mps 747 mmHg 68%
11:00 +29°C° 0 mm 5 mps 747 mmHg 62%
12:00 +30°C° 0.1 mm 4 mps 747 mmHg 60%
13:00 +30°C° 0.1 mm 4 mps 747 mmHg 58%
14:00 +32°C° 0.1 mm 4 mps 747 mmHg 56%
15:00 +32°C° 0.1 mm 4 mps 747 mmHg 57%
16:00 +31°C° 0.1 mm 3 mps 747 mmHg 59%
17:00 +30°C° 0.1 mm 3 mps 747 mmHg 60%
18:00 +29°C° 0.1 mm 2 mps 747 mmHg 65%
19:00 +28°C° 0.1 mm 1 mps 747 mmHg 71%
20:00 +27°C° 0.1 mm 1 mps 748 mmHg 76%
21:00 +26°C° 0.1 mm 1 mps 748 mmHg 77%
22:00 +25°C° 0.1 mm 1 mps 747 mmHg 79%
23:00 +25°C° 0.1 mm 2 mps 747 mmHg 81%

23 June, Wednesday

Time Temperature Precipitation Wind Pressure Humidity
00:00 +24°C° 0.4 mm 1 mps 748 mmHg 84%
01:00 +24°C° 0.4 mm 1 mps 748 mmHg 87%
02:00 +23°C° 0.4 mm 1 mps 748 mmHg 90%
03:00 +23°C° 0.2 mm 1 mps 748 mmHg 91%
04:00 +23°C° 0.2 mm 1 mps 748 mmHg 92%
05:00 +22°C° 0.2 mm 1 mps 748 mmHg 93%
06:00 +24°C° 0.1 mm 2 mps 748 mmHg 90%
07:00 +25°C° 0.1 mm 2 mps 749 mmHg 86%
08:00 +26°C° 0.1 mm 2 mps 749 mmHg 82%
09:00 +27°C° 0.4 mm 2 mps 749 mmHg 77%
10:00 +29°C° 0.4 mm 3 mps 749 mmHg 71%
11:00 +30°C° 0.4 mm 3 mps 749 mmHg 66%
12:00 +30°C° 0.1 mm 3 mps 749 mmHg 63%
13:00 +31°C° 0.1 mm 3 mps 749 mmHg 60%
14:00 +33°C° 0.1 mm 3 mps 749 mmHg 57%
15:00 +31°C° 0.3 mm 3 mps 749 mmHg 60%
16:00 +31°C° 0.3 mm 2 mps 749 mmHg 62%
17:00 +31°C° 0.3 mm 2 mps 749 mmHg 65%
18:00 +29°C° 0.1 mm 2 mps 749 mmHg 70%
19:00 +28°C° 0.1 mm 1 mps 749 mmHg 74%
20:00 +27°C° 0.1 mm 1 mps 749 mmHg 79%
21:00 +26°C° 0 mm 1 mps 749 mmHg 80%
22:00 +25°C° 0 mm 1 mps 749 mmHg 81%
23:00 +24°C° 0 mm 2 mps 749 mmHg 82%

24 June, Thursday

Time Temperature Precipitation Wind Pressure Humidity
00:00 +24°C° 0 mm 2 mps 749 mmHg 83%
01:00 +23°C° 0 mm 2 mps 749 mmHg 85%
02:00 +23°C° 0 mm 2 mps 749 mmHg 86%
03:00 +23°C° 0 mm 2 mps 749 mmHg 87%
04:00 +23°C° 0 mm 1 mps 749 mmHg 88%
05:00 +23°C° 0 mm 1 mps 749 mmHg 88%
06:00 +25°C° 0 mm 1 mps 750 mmHg 83%
07:00 +26°C° 0 mm 2 mps 750 mmHg 78%
08:00 +28°C° 0 mm 2 mps 750 mmHg 73%
09:00 +29°C° 0 mm 2 mps 750 mmHg 69%
10:00 +30°C° 0 mm 2 mps 750 mmHg 65%
11:00 +31°C° 0 mm 2 mps 750 mmHg 61%
12:00 +33°C° 0.1 mm 3 mps 750 mmHg 60%
13:00 +33°C° 0.1 mm 3 mps 750 mmHg 58%
14:00 +34°C° 0.1 mm 3 mps 750 mmHg 57%
15:00 +32°C° 0.3 mm 2 mps 750 mmHg 59%
16:00 +32°C° 0.3 mm 2 mps 750 mmHg 61%
17:00 +32°C° 0.3 mm 1 mps 750 mmHg 62%
18:00 +29°C° 1.5 mm 2 mps 749 mmHg 70%
19:00 +25°C° 1.5 mm 2 mps 749 mmHg 77%
20:00 +21°C° 1.5 mm 3 mps 749 mmHg 84%
21:00 +21°C° 0.2 mm 3 mps 749 mmHg 85%
22:00 +20°C° 0.2 mm 3 mps 749 mmHg 85%
23:00 +20°C° 0.2 mm 2 mps 750 mmHg 86%

25 June, Friday

Time Temperature Precipitation Wind Pressure Humidity
00:00 +19°C° 0 mm 2 mps 749 mmHg 87%
01:00 +20°C° 0 mm 1 mps 749 mmHg 89%
02:00 +20°C° 0 mm 1 mps 749 mmHg 91%
03:00 +20°C° 0.1 mm 1 mps 749 mmHg 92%
04:00 +19°C° 0.1 mm 2 mps 749 mmHg 92%
05:00 +19°C° 0.1 mm 2 mps 749 mmHg 93%
06:00 +21°C° 0.2 mm 2 mps 749 mmHg 88%
07:00 +23°C° 0.2 mm 2 mps 749 mmHg 83%
08:00 +24°C° 0.2 mm 2 mps 749 mmHg 77%
09:00 +26°C° 0 mm 3 mps 749 mmHg 73%
10:00 +27°C° 0 mm 3 mps 748 mmHg 69%
11:00 +29°C° 0 mm 4 mps 748 mmHg 64%
12:00 +29°C° 0.3 mm 4 mps 748 mmHg 66%
13:00 +30°C° 0.3 mm 4 mps 748 mmHg 67%
14:00 +30°C° 0.3 mm 4 mps 748 mmHg 68%
15:00 +30°C° 1.3 mm 4 mps 747 mmHg 72%
16:00 +29°C° 1.3 mm 4 mps 746 mmHg 76%
17:00 +28°C° 1.3 mm 4 mps 746 mmHg 80%
18:00 +26°C° 6.9 mm 4 mps 746 mmHg 85%
19:00 +23°C° 6.9 mm 4 mps 747 mmHg 90%
20:00 +20°C° 6.9 mm 4 mps 747 mmHg 94%
21:00 +20°C° 0.4 mm 3 mps 747 mmHg 95%
22:00 +19°C° 0.4 mm 3 mps 747 mmHg 96%
23:00 +19°C° 0.4 mm 2 mps 747 mmHg 96%
Show more